SCP
0 0 0 0 0 0 0 0 0 0 0 0 0 0 0 0 0 0 0 0 0 0 0 0 0 0 0 0 0 0 0 0 0 0 0 0 0 0 0 0 0 0 0
0 0 0 0 0 0 0 0 0 0 0 0 0 0 0 0 0 0 0 0 0 0 0 0 0 0 0 0 0 0 0 0 0 0 0 0 0 0 0 0 0 0 0
0 0 0 0 0 0 0 0 0 0 0 0 0 0 0 0 0 0 0 0 0 0 0 0 0 0 0 0 0 0 0 0 0 0 0 0 0 0 0 0 0 0 0
0 0 0 0 0 0 0 0 0 0 0 0 0 0 0 0 0 0 0 0 0 0 0 0 0 0 0 0 0 0 0 0 0 0 0 0 0 0 0 0 0 0 0
0 0 0 0 0 0 0 0 0 0 0 0 0 0 0 0 0 0 0 0 0 0 0 0 0 0 0 0 0 0 0 0 0 0 0 0 0 0 0 0 0 0 0
0 0 0 0 0 0 0 0 0 0 0 0 0 0 0 0 0 0 0 0 0 0 0 0 0 0 0 0 0 0 0 0 0 0 0 0 0 0 0 0 0 0 0
0 0 0 0 0 0 0 0 0 0 0 0 0 0 0 0 0 0 0 0 0 0 0 0 0 0 0 0 0 0 0 0 0 0 0 0 0 0 0 0 0 0 0
0 0 0 0 0 0 0 0 0 0 0 0 0 0 0 0 0 0 0 0 0 0 0 0 0 0 0 0 0 0 0 0 0 0 0 0 0 0 0 0 0 0 0
0 0 0 0 0 0 0 0 0 0 0 0 0 0 0 0 0 0 0 0 0 0 0 0 0 0 0 0 0 0 0 0 0 0 0 0 0 0 0 0 0 0 0
0 0 0 0 0 0 0 0 0 0 0 0 0 0 0 0 0 0 0 0 0 0 0 0 0 0 0 0 0 0 0 0 0 0 0 0 0 0 0 0 0 0 0
0 0 0 0 0 0 0 0 0 0 0 0 0 0 0 0 0 0 0 0 0 0 0 0 0 0 0 0 0 0 0 0 0 0 0 0 0 0 0 0 0 0 0
0 0 0 0 0 0 0 0 0 0 0 0 0 0 0 0 0 0 0 0 0 0 0 0 0 0 0 0 0 0 0 0 0 0 0 0 0 0 0 0 0 0 0
0 0 0 0 0 0 0 0 0 0 0 0 0 0 0 0 0 0 0 0 0 0 0 0 0 0 0 0 0 0 0 0 0 0 0 0 0 0 0 0 0 0 0
0 0 0 0 0 0 0 0 0 0 0 0 0 0 0 0 0 0 0 0 0 0 0 0 0 0 0 0 0 0 0 0 0 0 0 0 0 0 0 0 0 0 0
0 0 0 0 0 0 0 0 0 0 0 0 0 0 0 0 0 0 0 0 0 0 0 0 0 0 0 0 0 0 0 0 0 0 0 0 0 0 0 0 0 0 0
0 0 0 0 0 0 0 0 0 0 0 0 0 0 0 0 0 0 0 0 0 0 0 0 0 0 0 0 0 0 0 0 0 0 0 0 0 0 0 0 0 0 0
0 0 0 0 0 0 0 0 0 0 0 0 0 0 0 0 0 0 0 0 0 0 0 0 0 0 0 0 0 0 0 0 0 0 0 0 0 0 0 0 0 0 0
0 0 0 0 0 0 0 0 0 0 0 0 0 0 0 0 0 0 0 0 0 0 0 0 0 0 0 0 0 0 0 0 0 0 0 0 0 0 0 0 0 0 0
0 0 0 0 0 0 0 0 0 0 0 0 0 0 0 0 0 0 0 0 0 0 0 0 0 0 0 0 0 0 0 0 0 0 0 0 0 0 0 0 0 0 0
0 0 0 0 0 0 0 0 0 0 0 0 0 0 0 0 0 0 0 0 0 0 0 0 0 0 0 0 0 0 0 0 0 0 0 0 0 0 0 0 0 0 0
0 0 0 0 0 0 0 0 0 0 0 0 0 0 0 0 0 0 0 0 0 0 0 0 0 0 0 0 0 0 0 0 0 0 0 0 0 0 0 0 0 0 0
0 0 0 0 0 0 0 0 0 0 0 0 0 0 0 0 0 0 0 0 0 0 0 0 0 0 0 0 0 0 0 0 0 0 0 0 0 0 0 0 0 0 0
1 1 1 1 1 0 0 0 0 0 0 0 0 0 0 0 0 0 0 0 0 0 0 0 0 0 0 0 0 0 0 0 0 0 0 0 0 0 0 0 0 0 0
1 1 1 1 1 1 1 0 0 0 0 0 0 0 0 0 0 0 0 0 0 0 0 0 0 0 0 0 0 0 0 0 0 0 0 0 0 0 0 0 0 0 0
1 1 1 1 1 1 1 1 0 0 0 0 0 0 0 0 0 0 0 0 0 0 0 0 0 0 0 0 0 0 0 0 0 0 0 0 0 0 0 0 0 0 0
1 1 1 1 1 1 1 1 1 0 0 0 0 0 0 0 0 0 0 0 0 0 0 0 0 0 0 0 0 0 0 0 0 0 0 0 0 0 0 0 0 0 0
Wind_Speed
9 12 13 13 13 14 14 15 15 15 15 15 15 15 16 16 15 15 15 15 16 16 16 15 15 14 14 14 14 14 13 13 13 13 14 14 13 13 12 11 11 13 15
12 13 13 13 13 14 14 14 14 14 14 14 15 15 15 15 15 15 15 15 15 16 16 15 14 14 14 14 14 13 13 13 13 13 13 14 13 13 11 10 9 12 14
12 14 14 13 13 13 13 13 13 13 14 14 14 14 14 14 15 15 15 15 15 15 15 14 14 14 14 13 13 12 12 12 12 11 9 11 13 12 12 12 14 14 13
13 13 13 14 13 13 13 13 13 13 14 14 14 14 14 14 14 15 15 15 15 15 14 14 13 13 13 13 12 12 12 11 9 7 6 10 11 13 12 12 12 12 12
12 13 14 13 13 13 12 12 12 13 13 13 13 13 13 14 14 14 14 14 14 14 13 13 13 13 12 12 12 12 11 10 6 5 9 9 10 12 12 11 11 12 11
12 14 15 12 13 12 12 12 12 12 13 13 13 13 13 13 13 14 14 14 13 13 12 12 12 12 12 11 11 11 10 7 6 8 8 9 10 11 11 11 11 11 11
12 13 15 12 12 12 11 11 11 12 12 12 12 12 12 12 13 13 13 13 12 12 11 11 11 11 10 10 10 10 8 3 5 8 8 8 10 10 10 10 10 10 10
11 12 14 12 12 11 11 11 11 11 12 12 12 12 12 12 12 12 12 12 11 11 10 10 10 9 9 9 9 9 6 3 7 8 8 9 10 9 9 9 9 10 10
11 11 11 12 12 11 10 10 11 11 11 12 11 11 11 11 11 11 11 11 11 10 9 9 9 9 8 8 8 7 5 1 4 6 8 8 10 9 9 9 9 9 9
9 9 9 10 10 10 11 11 11 11 11 11 11 11 11 11 11 10 11 10 10 9 9 8 8 8 8 7 7 7 6 5 5 7 6 9 10 9 8 8 8 8 9
9 8 8 9 8 8 9 11 10 11 10 10 10 10 9 8 9 8 11 9 9 9 8 8 7 7 7 8 8 7 6 2 5 4 6 11 9 8 8 7 7 8 8
11 9 7 7 8 7 6 7 6 7 7 5 6 7 5 5 5 7 10 8 8 8 8 7 6 6 5 6 8 7 3 4 4 4 8 10 8 7 7 7 7 7 7
11 10 8 7 6 6 5 5 4 3 5 5 6 5 4 4 5 5 5 7 7 7 6 7 6 3 3 3 2 2 2 2 2 3 8 10 7 7 7 7 7 7 7
11 10 9 8 6 5 4 4 4 4 4 4 5 5 4 3 2 3 3 4 4 3 3 2 1 3 2 2 2 2 2 1 2 3 7 9 7 7 7 7 7 7 7
11 10 9 8 7 6 4 3 4 3 4 5 4 4 3 3 3 3 2 2 2 3 3 2 1 2 1 1 1 2 2 2 2 2 6 9 7 6 6 7 7 8 7
11 11 10 9 8 7 5 4 3 4 3 4 4 5 4 3 3 2 3 2 2 2 1 1 2 1 0 1 1 1 1 2 3 2 4 7 8 7 6 7 7 8 8
11 11 10 9 8 7 6 6 4 4 4 4 4 4 4 3 3 2 2 2 2 2 2 2 2 1 2 2 1 1 1 1 2 2 3 3 6 9 8 7 7 7 8
11 11 11 9 10 9 7 5 4 4 4 3 3 4 4 3 3 3 2 2 2 2 2 2 2 1 0 0 1 1 1 2 2 2 3 3 3 4 8 9 8 7 8
11 11 11 10 10 9 8 6 5 4 4 3 3 3 4 4 4 3 2 1 3 2 2 2 2 1 1 1 2 2 1 1 2 3 2 3 3 3 4 8 9 7 8
11 11 11 11 10 9 8 6 5 5 4 4 4 4 5 4 5 4 3 3 3 2 2 1 1 1 1 1 2 1 1 2 2 2 3 3 4 5 5 5 6 8 9
12 12 12 12 11 8 7 7 7 6 5 5 5 6 6 6 5 4 3 3 3 3 3 3 2 3 2 1 2 1 2 3 3 3 3 3 4 4 4 4 4 4 6
14 13 13 13 12 11 8 7 5 5 5 4 4 5 6 6 6 5 5 4 4 3 4 3 3 2 2 2 2 2 2 3 3 3 3 4 4 3 4 5 4 4 4
15 15 12 13 12 12 10 7 6 5 4 5 6 5 6 7 7 6 5 5 4 4 4 4 4 4 3 3 2 2 2 1 1 3 3 3 3 3 4 3 5 5 6
15 14 13 13 13 12 11 10 10 8 7 7 5 5 6 7 7 6 6 5 5 5 4 5 4 3 4 3 2 2 3 2 2 1 3 4 4 4 4 4 4 5 6
15 14 13 14 13 13 12 12 11 10 8 6 6 6 6 6 7 7 6 6 6 5 5 5 3 4 4 4 3 3 3 3 4 4 2 2 3 3 4 4 4 4 5
14 13 13 14 14 13 13 13 12 11 9 8 8 6 6 5 6 7 7 6 6 5 5 5 5 6 5 4 4 3 3 3 3 3 3 3 3 2 3 3 4 4 5
Wind_Direction
116 108 107 107 105 105 104 104 104 105 106 105 105 106 106 104 106 108 109 109 109 109 109 108 107 106 105 105 105 104 103 104 104 105 105 105 106 107 109 117 124 106 108
119 112 110 108 106 106 105 106 106 106 107 107 106 106 106 104 105 107 111 109 110 110 109 107 105 104 104 104 105 106 106 106 107 110 115 112 107 105 107 103 87 105 114
120 118 119 108 107 107 107 106 106 107 108 108 107 106 106 105 105 105 108 108 107 106 106 106 106 104 104 105 104 104 106 107 112 124 141 120 110 106 104 99 102 113 114
123 122 114 111 110 109 109 108 108 108 107 108 108 107 107 107 106 105 106 107 106 106 107 108 106 105 105 104 102 101 104 108 118 154 127 106 109 105 106 107 111 115 116
126 119 112 117 113 111 108 107 108 110 109 108 109 109 109 108 107 106 106 106 106 107 108 109 107 106 106 105 103 102 104 110 133 132 94 98 101 109 112 112 115 114 115
126 120 116 120 115 112 109 106 106 109 109 109 109 108 108 108 107 106 106 106 107 107 109 108 106 106 107 108 108 108 112 136 164 104 103 105 107 113 114 116 116 115 114
126 121 121 122 118 114 111 109 109 109 110 109 107 106 108 108 109 108 107 107 108 110 110 108 107 108 109 110 111 113 118 162 112 104 105 99 100 112 115 118 118 119 118
128 123 120 123 121 117 114 112 110 111 112 110 108 108 108 108 110 111 111 111 111 112 111 110 109 112 112 112 116 118 133 204 117 108 109 104 107 115 117 120 122 122 120
132 129 133 135 130 123 116 114 112 112 112 112 112 111 111 109 110 111 111 112 114 114 112 110 110 112 116 116 119 119 122 268 110 108 110 106 117 123 122 122 125 126 125
136 135 136 134 135 138 131 121 117 116 115 115 117 117 117 119 118 121 120 110 113 112 110 109 108 111 116 117 122 129 151 212 121 119 112 112 125 128 130 129 129 130 130
145 142 142 137 140 139 132 129 134 129 127 134 129 131 151 141 130 137 103 114 116 113 108 106 108 119 134 133 130 151 188 166 104 99 99 113 133 138 138 138 137 133 135
156 153 152 146 146 144 134 133 142 140 137 135 123 137 133 112 112 111 113 117 119 120 122 115 129 163 193 143 143 183 176 134 121 120 108 127 142 149 149 147 148 145 144
158 157 157 153 152 146 140 140 130 127 130 131 125 128 121 133 136 134 140 144 145 159 149 145 176 151 116 93 118 124 111 119 119 117 119 139 154 160 157 153 155 155 154
163 164 161 155 155 157 147 138 147 145 143 134 134 157 142 134 132 126 141 139 150 144 124 133 122 101 96 118 112 108 126 128 110 108 122 145 161 168 166 165 165 164 163
169 169 166 163 160 156 155 169 150 146 146 135 144 146 150 149 143 134 136 150 157 134 153 155 135 107 112 132 122 110 101 101 113 134 125 149 166 175 176 176 176 176 173
178 174 169 172 168 167 169 175 158 162 154 155 160 151 168 154 135 146 155 162 159 164 129 153 137 149 168 95 121 117 168 141 132 158 145 153 170 180 186 188 188 188 186
180 176 173 176 175 178 182 184 178 175 172 169 160 160 175 172 154 173 167 183 162 153 158 184 154 173 188 172 161 174 174 168 146 159 164 165 170 178 189 196 195 196 197
182 178 180 181 179 184 189 192 189 185 177 179 177 172 179 183 183 195 194 186 164 187 185 173 206 200 112 261 210 230 162 161 177 191 193 185 191 175 180 188 200 202 204
184 180 184 187 186 188 187 191 200 188 194 196 192 190 184 196 197 205 208 167 198 198 203 232 150 224 193 225 218 207 219 192 195 206 199 198 192 197 183 171 193 204 209
185 184 186 187 189 189 187 189 200 200 201 206 202 203 203 205 205 212 200 191 221 210 207 219 206 227 247 231 262 237 246 220 216 202 212 198 195 203 205 188 190 195 201
187 188 189 192 188 192 193 196 195 197 203 208 212 210 210 215 211 220 226 193 223 222 228 223 221 209 224 200 236 238 223 216 210 204 212 216 200 205 205 206 223 208 191
190 192 192 196 195 198 197 201 204 205 205 209 218 213 217 214 217 215 219 221 215 225 224 227 228 245 223 205 236 252 231 191 198 196 202 211 208 205 207 207 210 217 236
193 194 195 197 197 202 197 197 197 198 214 209 210 211 216 217 217 226 224 232 227 233 224 226 226 233 236 226 229 260 273 256 204 177 205 206 207 221 221 211 215 213 223
197 194 195 196 199 199 199 205 206 209 213 214 215 213 209 213 220 219 223 227 230 236 231 229 218 230 237 235 213 230 267 310 278 221 199 190 204 221 232 234 221 211 219
196 195 195 196 199 198 203 207 213 220 218 215 213 214 217 214 220 220 220 223 226 231 233 241 230 240 230 237 234 224 224 223 243 263 256 228 213 215 215 227 232 227 221
196 196 195 195 199 199 202 209 215 221 221 220 214 212 215 214 215 217 219 220 226 229 224 226 226 227 237 238 242 237 234 237 238 242 249 246 248 240 228 229 232 225 222